| time (UTC) | temp C | wind direction | speed KPH | gust KPH | rain 1hr cm | rain 24hr cm | rain mn cm | humidity % | barometer mb |
| 20260510153926 | 13 | 19 | 3.2 | 4.8 | 0.00 | 0.00 | 0.00 | 52 | 1018.6 |
| 20260510153423 | 12 | 340 | 0.0 | 1.6 | 0.00 | 0.00 | 0.00 | 54 | 1018.8 |
| 20260510152919 | 12 | 23 | 0.0 | 1.6 | 0.00 | 0.00 | 0.00 | 58 | 1018.6 |
| 20260510152418 | 12 | 16 | 3.2 | 3.2 | 0.00 | 0.00 | 0.00 | 53 | 1018.6 |
| 20260510151913 | 12 | 337 | 1.6 | 1.6 | 0.00 | 0.00 | 0.00 | 58 | 1018.6 |
| 20260510151411 | 12 | 19 | 0.0 | 1.6 | 0.00 | 0.00 | 0.00 | 61 | 1018.6 |
| 20260510150907 | 12 | 36 | 3.2 | 3.2 | 0.00 | 0.00 | 0.00 | 57 | 1018.5 |
| 20260510150403 | 12 | 22 | 3.2 | 3.2 | 0.00 | 0.00 | 0.00 | 60 | 1018.5 |
| 20260510145859 | 12 | 39 | 3.2 | 6.4 | 0.00 | 0.00 | 0.00 | 62 | 1018.1 |
| 20260510145355 | 11 | 20 | 6.4 | 9.7 | 0.00 | 0.00 | 0.00 | 59 | 1018.0 |
| 20260510144852 | 11 | 336 | 6.4 | 9.7 | 0.00 | 0.00 | 0.00 | 58 | 1018.1 |
| 20260510144349 | 11 | 2 | 0.0 | 1.6 | 0.00 | 0.00 | 0.00 | 65 | 1018.1 |
| 20260510143849 | 11 | 38 | 4.8 | 4.8 | 0.00 | 0.00 | 0.00 | 62 | 1017.9 |
| 20260510143345 | 11 | 323 | 3.2 | 3.2 | 0.00 | 0.00 | 0.00 | 62 | 1017.9 |
| 20260510142842 | 11 | 303 | 6.4 | 6.4 | 0.00 | 0.00 | 0.00 | 63 | 1017.9 |
| 20260510142338 | 11 | 332 | 4.8 | 4.8 | 0.00 | 0.00 | 0.00 | 63 | 1017.9 |
| 20260510141835 | 11 | 351 | 8.0 | 11.3 | 0.00 | 0.00 | 0.00 | 63 | 1017.8 |
| 20260510141333 | 11 | 28 | 3.2 | 3.2 | 0.00 | 0.00 | 0.00 | 65 | 1017.8 |
| 20260510140831 | 10 | 37 | 9.7 | 9.7 | 0.00 | 0.00 | 0.00 | 68 | 1017.8 |
| 20260510140326 | 10 | 350 | 0.0 | 1.6 | 0.00 | 0.00 | 0.00 | 69 | 1017.8 |
| 20260510135825 | 10 | 32 | 3.2 | 3.2 | 0.00 | 0.00 | 0.00 | 68 | 1018.0 |
| 20260510135321 | 10 | 4 | 1.6 | 3.2 | 0.00 | 0.00 | 0.00 | 70 | 1017.9 |
| 20260510134819 | 10 | 27 | 1.6 | 1.6 | 0.00 | 0.00 | 0.00 | 71 | 1017.8 |
| 20260510134315 | 10 | 310 | 6.4 | 9.7 | 0.00 | 0.00 | 0.00 | 69 | 1017.9 |
| 20260510133811 | 10 | 26 | 0.0 | 1.6 | 0.00 | 0.00 | 0.00 | 74 | 1017.8 |
| 20260510133308 | 10 | 327 | 3.2 | 4.8 | 0.00 | 0.00 | 0.00 | 75 | 1017.8 |
| 20260510132803 | 10 | 12 | 1.6 | 3.2 | 0.00 | 0.00 | 0.00 | 79 | 1017.5 |
| 20260510132305 | 9 | 345 | 3.2 | 3.2 | 0.00 | 0.00 | 0.00 | 77 | 1017.5 |
| 20260510131758 | 9 | 6 | 0.0 | 0.0 | 0.00 | 0.00 | 0.00 | 79 | 1017.6 |
| 20260510131256 | 9 | 357 | 1.6 | 3.2 | 0.00 | 0.00 | 0.00 | 78 | 1017.3 |
| 20260510130752 | 9 | 341 | 0.0 | 1.6 | 0.00 | 0.00 | 0.00 | 81 | 1017.4 |
| 20260510130249 | 9 | 305 | 1.6 | 3.2 | 0.00 | 0.00 | 0.00 | 79 | 1017.4 |
| 20260510125740 | 9 | 19 | 0.0 | 0.0 | 0.00 | 0.00 | 0.00 | 85 | 1017.2 |
| 20260510125236 | 8 | 19 | 1.6 | 1.6 | 0.00 | 0.00 | 0.00 | 84 | 1017.2 |
| 20260510124733 | 8 | 325 | 0.0 | 1.6 | 0.00 | 0.00 | 0.00 | 86 | 1017.0 |
| 20260510124231 | 8 | 19 | 0.0 | 1.6 | 0.00 | 0.00 | 0.00 | 86 | 1017.0 |
| 20260510123726 | 8 | 19 | 0.0 | 0.0 | 0.00 | 0.00 | 0.00 | 89 | 1016.8 |
| 20260510123222 | 8 | 19 | 3.2 | 3.2 | 0.00 | 0.00 | 0.00 | 88 | 1016.6 |
| 20260510122718 | 8 | 326 | 0.0 | 0.0 | 0.00 | 0.00 | 0.00 | 88 | 1016.6 |
| 20260510122215 | 8 | 321 | 0.0 | 1.6 | 0.00 | 0.00 | 0.00 | 89 | 1016.6 |
| 20260510121711 | 8 | 21 | 1.6 | 3.2 | 0.00 | 0.00 | 0.00 | 89 | 1016.4 |
| 20260510121209 | 8 | 32 | 3.2 | 4.8 | 0.00 | 0.00 | 0.00 | 89 | 1016.5 |
| 20260510120706 | 8 | 20 | 0.0 | 0.0 | 0.00 | 0.00 | 0.00 | 90 | 1016.1 |
| 20260510120202 | 8 | 17 | 0.0 | 0.0 | 0.00 | 0.00 | 0.00 | 90 | 1016.1 |
| 20260510115658 | 8 | 339 | 0.0 | 0.0 | 0.00 | 0.00 | 0.00 | 91 | 1015.8 |
| 20260510115156 | 8 | 354 | 1.6 | 3.2 | 0.00 | 0.00 | 0.00 | 90 | 1015.8 |
| 20260510114651 | 8 | 326 | 0.0 | 0.0 | 0.00 | 0.00 | 0.00 | 89 | 1015.9 |
| 20260510114148 | 8 | 326 | 0.0 | 0.0 | 0.00 | 0.00 | 0.00 | 90 | 1015.8 |
| 20260510113643 | 8 | 325 | 0.0 | 0.0 | 0.00 | 0.00 | 0.00 | 90 | 1015.4 |
| 20260510113140 | 8 | 320 | 0.0 | 0.0 | 0.00 | 0.00 | 0.00 | 90 | 1015.5 |
| 20260510112637 | 8 | 326 | 0.0 | 0.0 | 0.00 | 0.00 | 0.00 | 90 | 1015.0 |
| 20260510112134 | 8 | 326 | 0.0 | 1.6 | 0.00 | 0.00 | 0.00 | 89 | 1015.1 |
| 20260510111630 | 8 | 355 | 0.0 | 1.6 | 0.00 | 0.00 | 0.00 | 89 | 1015.0 |
| 20260510111125 | 8 | 353 | 0.0 | 1.6 | 0.00 | 0.00 | 0.00 | 89 | 1015.0 |
| 20260510110616 | 8 | 338 | 0.0 | 0.0 | 0.00 | 0.00 | 0.00 | 89 | 1014.8 |
| 20260510110113 | 8 | 336 | 1.6 | 3.2 | 0.00 | 0.00 | 0.00 | 89 | 1014.9 |
| 20260510105609 | 8 | 325 | 0.0 | 0.0 | 0.00 | 0.00 | 0.00 | 89 | 1014.6 |
| 20260510105103 | 8 | 352 | 0.0 | 1.6 | 0.00 | 0.00 | 0.00 | 90 | 1014.4 |
| 20260510104601 | 8 | 352 | 0.0 | 0.0 | 0.00 | 0.00 | 0.00 | 91 | 1014.4 |
| 20260510104057 | 7 | 340 | 1.6 | 1.6 | 0.00 | 0.00 | 0.00 | 92 | 1014.4 |
| 20260510103554 | 7 | 324 | 0.0 | 0.0 | 0.00 | 0.00 | 0.00 | 94 | 1014.2 |
| 20260510103050 | 7 | 324 | 0.0 | 0.0 | 0.00 | 0.00 | 0.00 | 95 | 1014.0 |
| 20260510102546 | 7 | 324 | 0.0 | 0.0 | 0.00 | 0.00 | 0.00 | 96 | 1014.0 |
| 20260510102042 | 7 | 324 | 0.0 | 0.0 | 0.00 | 0.00 | 0.00 | 96 | 1013.9 |
| 20260510101540 | 7 | 324 | 0.0 | 0.0 | 0.00 | 0.00 | 0.00 | 96 | 1013.7 |
| 20260510101038 | 7 | 324 | 0.0 | 0.0 | 0.00 | 0.00 | 0.00 | 95 | 1013.7 |
| 20260510100533 | 7 | 324 | 0.0 | 0.0 | 0.00 | 0.00 | 0.00 | 94 | 1013.7 |
| 20260510100031 | 7 | 324 | 0.0 | 0.0 | 0.00 | 0.00 | 0.00 | 94 | 1013.7 |
| 20260510095527 | 7 | 324 | 0.0 | 0.0 | 0.00 | 0.00 | 0.00 | 93 | 1013.7 |
| 20260510095025 | 7 | 324 | 0.0 | 0.0 | 0.00 | 0.00 | 0.00 | 93 | 1013.5 |
| 20260510094520 | 7 | 324 | 0.0 | 0.0 | 0.00 | 0.00 | 0.00 | 92 | 1013.5 |
| 20260510094016 | 7 | 324 | 0.0 | 0.0 | 0.00 | 0.00 | 0.00 | 92 | 1013.7 |
| 20260510093512 | 7 | 324 | 0.0 | 0.0 | 0.00 | 0.00 | 0.00 | 93 | 1013.6 |
| 20260510093009 | 7 | 324 | 0.0 | 0.0 | 0.00 | 0.00 | 0.00 | 93 | 1013.3 |
| 20260510092506 | 7 | 324 | 0.0 | 0.0 | 0.00 | 0.00 | 0.00 | 93 | 1013.4 |
| 20260510092005 | 7 | 324 | 0.0 | 0.0 | 0.00 | 0.00 | 0.00 | 93 | 1013.6 |
| 20260510091503 | 7 | 324 | 0.0 | 0.0 | 0.00 | 0.00 | 0.00 | 92 | 1013.2 |
| 20260510090959 | 7 | 324 | 0.0 | 0.0 | 0.00 | 0.00 | 0.00 | 92 | 1013.0 |
| 20260510090457 | 7 | 324 | 0.0 | 0.0 | 0.00 | 0.00 | 0.00 | 92 | 1013.2 |
| 20260510085951 | 7 | 324 | 0.0 | 0.0 | 0.00 | 0.00 | 0.00 | 91 | 1012.8 |
| 20260510085447 | 7 | 324 | 0.0 | 0.0 | 0.00 | 0.00 | 0.00 | 91 | 1012.7 |
| 20260510084942 | 8 | 324 | 0.0 | 0.0 | 0.00 | 0.00 | 0.00 | 91 | 1012.6 |
| 20260510084440 | 8 | 324 | 0.0 | 0.0 | 0.00 | 0.00 | 0.00 | 91 | 1012.6 |
| 20260510083936 | 8 | 325 | 0.0 | 0.0 | 0.00 | 0.00 | 0.00 | 90 | 1012.2 |
| 20260510083433 | 8 | 325 | 0.0 | 0.0 | 0.00 | 0.00 | 0.00 | 89 | 1012.4 |
| 20260510082928 | 8 | 325 | 0.0 | 0.0 | 0.00 | 0.00 | 0.00 | 89 | 1012.3 |
| 20260510082426 | 8 | 325 | 0.0 | 0.0 | 0.00 | 0.00 | 0.00 | 89 | 1012.1 |
| 20260510081925 | 8 | 325 | 0.0 | 0.0 | 0.00 | 0.00 | 0.00 | 89 | 1012.0 |
| 20260510081421 | 8 | 325 | 0.0 | 0.0 | 0.00 | 0.00 | 0.00 | 88 | 1012.0 |
| 20260510080918 | 8 | 325 | 0.0 | 0.0 | 0.00 | 0.00 | 0.00 | 89 | 1012.0 |
| 20260510080417 | 8 | 325 | 0.0 | 0.0 | 0.00 | 0.00 | 0.00 | 89 | 1012.1 |
| 20260510075914 | 9 | 325 | 0.0 | 0.0 | 0.00 | 0.00 | 0.00 | 89 | 1012.2 |
| 20260510075412 | 9 | 355 | 1.6 | 1.6 | 0.00 | 0.00 | 0.00 | 88 | 1011.9 |
| 20260510074908 | 9 | 356 | 0.0 | 1.6 | 0.00 | 0.00 | 0.00 | 88 | 1012.0 |
| 20260510074405 | 9 | 17 | 0.0 | 0.0 | 0.00 | 0.00 | 0.00 | 89 | 1011.9 |
| 20260510073902 | 10 | 324 | 1.6 | 1.6 | 0.00 | 0.00 | 0.00 | 88 | 1011.7 |
| 20260510073357 | 10 | 6 | 0.0 | 0.0 | 0.00 | 0.00 | 0.00 | 89 | 1011.7 |
| 20260510072853 | 10 | 337 | 1.6 | 1.6 | 0.00 | 0.00 | 0.00 | 96 | 1011.8 |
| 20260510072351 | 10 | 320 | 1.6 | 3.2 | 0.00 | 0.00 | 0.00 | 98 | 1011.6 |
| 20260510071846 | 11 | 324 | 0.0 | 0.0 | 0.00 | 0.00 | 0.00 | 99 | 1011.6 |
| 20260510071343 | 11 | 304 | 1.6 | 1.6 | 0.00 | 0.00 | 0.00 | 99 | 1011.6 |
| 20260510070842 | 11 | 338 | 0.0 | 0.0 | 0.00 | 0.00 | 0.00 | 99 | 1011.6 |
| 20260510070339 | 11 | 319 | 0.0 | 0.0 | 0.00 | 0.00 | 0.00 | 99 | 1011.4 |
| 20260510065839 | 11 | 320 | 0.0 | 0.0 | 0.00 | 0.00 | 0.00 | 99 | 1011.2 |
| 20260510065336 | 11 | 327 | 0.0 | 0.0 | 0.00 | 0.00 | 0.00 | 99 | 1011.1 |
| 20260510064833 | 11 | 327 | 0.0 | 0.0 | 0.00 | 0.00 | 0.00 | 99 | 1011.1 |
| 20260510064331 | 11 | 340 | 0.0 | 0.0 | 0.00 | 0.00 | 0.00 | 99 | 1010.9 |
| 20260510063827 | 11 | 340 | 0.0 | 0.0 | 0.00 | 0.00 | 0.00 | 99 | 1010.9 |
| 20260510063323 | 11 | 341 | 1.6 | 1.6 | 0.00 | 0.00 | 0.00 | 99 | 1010.7 |
| 20260510062820 | 11 | 339 | 0.0 | 0.0 | 0.00 | 0.00 | 0.00 | 99 | 1010.7 |
| 20260510062315 | 11 | 339 | 0.0 | 0.0 | 0.00 | 0.00 | 0.00 | 99 | 1010.5 |
| 20260510061811 | 11 | 339 | 0.0 | 0.0 | 0.00 | 0.00 | 0.00 | 99 | 1010.5 |
| 20260510061308 | 11 | 339 | 0.0 | 0.0 | 0.00 | 0.00 | 0.00 | 99 | 1010.5 |
| 20260510060804 | 11 | 339 | 0.0 | 0.0 | 0.00 | 0.00 | 0.00 | 99 | 1010.7 |
| 20260510060301 | 11 | 340 | 0.0 | 0.0 | 0.00 | 0.00 | 0.00 | 99 | 1010.4 |
| 20260510055758 | 11 | 339 | 0.0 | 0.0 | 0.00 | 0.00 | 0.00 | 99 | 1010.4 |
| 20260510055256 | 11 | 339 | 0.0 | 0.0 | 0.00 | 0.00 | 0.00 | 99 | 1010.1 |
| 20260510054755 | 11 | 339 | 0.0 | 0.0 | 0.00 | 0.00 | 0.00 | 99 | 1010.4 |
| 20260510054252 | 11 | 339 | 0.0 | 0.0 | 0.00 | 0.00 | 0.00 | 99 | 1010.3 |
| 20260510053752 | 11 | 307 | 0.0 | 0.0 | 0.00 | 0.00 | 0.00 | 99 | 1010.2 |
| 20260510053247 | 11 | 306 | 0.0 | 0.0 | 0.00 | 0.00 | 0.00 | 99 | 1010.1 |
| 20260510052743 | 11 | 306 | 0.0 | 0.0 | 0.00 | 0.00 | 0.00 | 99 | 1009.9 |
| 20260510052240 | 11 | 306 | 0.0 | 0.0 | 0.00 | 0.00 | 0.00 | 99 | 1009.9 |
| 20260510051735 | 11 | 262 | 0.0 | 0.0 | 0.00 | 0.00 | 0.00 | 99 | 1009.7 |
| 20260510051233 | 11 | 262 | 0.0 | 0.0 | 0.00 | 0.00 | 0.00 | 99 | 1009.9 |
| 20260510050729 | 11 | 262 | 0.0 | 0.0 | 0.00 | 0.00 | 0.00 | 99 | 1009.7 |
| 20260510050227 | 11 | 262 | 0.0 | 0.0 | 0.00 | 0.00 | 0.00 | 99 | 1009.9 |
| 20260510045723 | 11 | 262 | 0.0 | 0.0 | 0.00 | 0.00 | 0.00 | 99 | 1009.7 |
| 20260510045220 | 11 | 262 | 1.6 | 1.6 | 0.00 | 0.00 | 0.00 | 99 | 1009.5 |
| 20260510044716 | 11 | 265 | 1.6 | 1.6 | 0.00 | 0.00 | 0.00 | 99 | 1009.8 |
| 20260510044215 | 11 | 265 | 0.0 | 0.0 | 0.00 | 0.00 | 0.00 | 99 | 1009.9 |
| 20260510043709 | 11 | 265 | 0.0 | 0.0 | 0.00 | 0.00 | 0.00 | 99 | 1009.6 |
| 20260510043207 | 11 | 265 | 0.0 | 0.0 | 0.00 | 0.00 | 0.00 | 99 | 1009.6 |
| 20260510042703 | 11 | 265 | 0.0 | 0.0 | 0.00 | 0.00 | 0.00 | 99 | 1009.6 |
| 20260510042200 | 11 | 265 | 0.0 | 0.0 | 0.00 | 0.00 | 0.00 | 99 | 1009.4 |
| 20260510041657 | 11 | 265 | 0.0 | 0.0 | 0.00 | 0.00 | 0.00 | 99 | 1009.5 |
| 20260510041154 | 11 | 265 | 0.0 | 0.0 | 0.00 | 0.00 | 0.00 | 99 | 1009.4 |
| 20260510040651 | 12 | 265 | 0.0 | 0.0 | 0.00 | 0.00 | 0.00 | 99 | 1009.2 |
| 20260510040148 | 12 | 265 | 0.0 | 0.0 | 0.00 | 0.00 | 0.00 | 99 | 1009.3 |
| 20260510035643 | 12 | 265 | 0.0 | 0.0 | 0.00 | 1.19 | 1.19 | 99 | 1009.3 |
| 20260510035138 | 12 | 265 | 0.0 | 0.0 | 0.00 | 1.19 | 1.19 | 99 | 1009.4 |
| 20260510034635 | 12 | 270 | 0.0 | 0.0 | 0.00 | 1.19 | 1.19 | 99 | 1009.4 |
| 20260510034132 | 12 | 270 | 0.0 | 0.0 | 0.00 | 1.19 | 1.19 | 99 | 1009.2 |
| 20260510033629 | 12 | 270 | 0.0 | 0.0 | 0.00 | 1.19 | 1.19 | 99 | 1009.5 |
| 20260510033127 | 12 | 269 | 0.0 | 0.0 | 0.00 | 1.19 | 1.19 | 99 | 1009.2 |
| 20260510032623 | 12 | 313 | 0.0 | 0.0 | 0.00 | 1.19 | 1.19 | 99 | 1009.2 |
| 20260510032118 | 12 | 313 | 0.0 | 1.6 | 0.00 | 1.19 | 1.19 | 99 | 1009.3 |
| 20260510031613 | 12 | 313 | 0.0 | 0.0 | 0.00 | 1.19 | 1.19 | 99 | 1009.2 |
| 20260510031110 | 12 | 313 | 0.0 | 0.0 | 0.13 | 1.19 | 1.19 | 99 | 1009.3 |
| 20260510030605 | 12 | 313 | 1.6 | 1.6 | 0.13 | 1.19 | 1.19 | 99 | 1009.1 |
| 20260510030103 | 12 | 313 | 0.0 | 1.6 | 0.30 | 1.17 | 1.17 | 99 | 1009.3 |
| 20260510025600 | 12 | 313 | 0.0 | 0.0 | 0.30 | 1.17 | 1.17 | 99 | 1009.6 |
| 20260510025057 | 12 | 332 | 0.0 | 0.0 | 0.00 | 1.12 | 1.12 | 99 | 1009.3 |
| 20260510024554 | 12 | 331 | 0.0 | 0.0 | 0.00 | 1.12 | 1.12 | 99 | 1009.3 |
| 20260510024050 | 12 | 331 | 0.0 | 0.0 | 0.18 | 1.12 | 1.12 | 99 | 1009.5 |
| 20260510023546 | 12 | 331 | 0.0 | 0.0 | 0.18 | 1.12 | 1.12 | 99 | 1009.2 |
| 20260510023044 | 12 | 153 | 1.6 | 1.6 | 0.00 | 1.09 | 1.09 | 99 | 1009.7 |
| 20260510022543 | 12 | 330 | 0.0 | 0.0 | 0.00 | 1.09 | 1.09 | 99 | 1009.3 |
| 20260510022037 | 12 | 315 | 0.0 | 1.6 | 0.00 | 1.09 | 1.09 | 99 | 1009.2 |
| 20260510021534 | 12 | 307 | 0.0 | 0.0 | 0.00 | 1.09 | 1.09 | 99 | 1009.0 |
| 20260510021032 | 12 | 305 | 0.0 | 0.0 | 0.00 | 1.09 | 1.09 | 99 | 1009.2 |
| 20260510020526 | 12 | 318 | 0.0 | 0.0 | 0.00 | 1.09 | 1.09 | 99 | 1009.0 |
| 20260510020022 | 12 | 318 | 0.0 | 0.0 | 0.00 | 1.09 | 1.09 | 99 | 1009.0 |
| 20260510015518 | 12 | 319 | 0.0 | 0.0 | 0.00 | 1.09 | 1.09 | 99 | 1008.9 |
| 20260510015014 | 12 | 319 | 0.0 | 0.0 | 0.00 | 1.09 | 1.09 | 99 | 1008.9 |
| 20260510014511 | 12 | 319 | 0.0 | 0.0 | 0.00 | 1.09 | 1.09 | 99 | 1008.7 |
| 20260510014008 | 12 | 319 | 0.0 | 0.0 | 0.00 | 1.09 | 1.09 | 99 | 1008.6 |
| 20260510013502 | 12 | 319 | 0.0 | 0.0 | 0.00 | 1.09 | 1.09 | 99 | 1008.6 |
| 20260510012958 | 12 | 319 | 0.0 | 0.0 | 0.00 | 1.09 | 1.09 | 99 | 1008.5 |
| 20260510012447 | 12 | 318 | 0.0 | 0.0 | 0.00 | 1.09 | 1.09 | 99 | 1008.3 |
| 20260510011942 | 12 | 318 | 0.0 | 0.0 | 0.00 | 1.09 | 1.09 | 99 | 1008.3 |
| 20260510011438 | 12 | 321 | 0.0 | 0.0 | 0.00 | 1.09 | 1.09 | 98 | 1008.2 |
| 20260510010934 | 12 | 321 | 0.0 | 0.0 | 0.00 | 1.09 | 1.09 | 98 | 1008.0 |
| 20260510010431 | 12 | 321 | 0.0 | 0.0 | 0.00 | 1.09 | 1.09 | 98 | 1008.1 |
| 20260510005928 | 12 | 321 | 0.0 | 0.0 | 0.00 | 1.09 | 1.09 | 98 | 1008.1 |
| 20260510005423 | 12 | 330 | 0.0 | 0.0 | 0.00 | 1.09 | 1.09 | 97 | 1008.0 |
| 20260510004921 | 13 | 299 | 0.0 | 0.0 | 0.00 | 1.09 | 1.09 | 97 | 1008.1 |
| 20260510004418 | 13 | 255 | 0.0 | 0.0 | 0.00 | 1.09 | 1.09 | 96 | 1007.9 |
| 20260510003916 | 12 | 255 | 0.0 | 1.6 | 0.00 | 1.09 | 1.09 | 96 | 1007.8 |
| 20260510003413 | 12 | 299 | 0.0 | 0.0 | 0.00 | 1.09 | 1.09 | 96 | 1008.1 |
| 20260510002912 | 12 | 177 | 1.6 | 3.2 | 0.00 | 1.09 | 1.09 | 97 | 1008.2 |
| 20260510002409 | 12 | 282 | 0.0 | 0.0 | 0.00 | 1.09 | 1.09 | 97 | 1008.4 |
| 20260510001906 | 12 | 297 | 0.0 | 0.0 | 0.00 | 1.09 | 1.09 | 97 | 1008.2 |
| 20260510001403 | 12 | 295 | 0.0 | 0.0 | 0.18 | 1.09 | 1.09 | 97 | 1008.2 |
| 20260510000900 | 12 | 294 | 1.6 | 1.6 | 0.18 | 1.09 | 1.09 | 97 | 1008.4 |
| 20260510000357 | 12 | 297 | 1.6 | 1.6 | 0.00 | 1.07 | 1.07 | 97 | 1008.2 |
| 20260509235853 | 12 | 242 | 1.6 | 1.6 | 0.13 | 1.07 | 1.07 | 97 | 1008.3 |
| 20260509235350 | 12 | 198 | 0.0 | 0.0 | 0.43 | 1.07 | 1.07 | 97 | 1008.5 |
| 20260509234846 | 12 | 273 | 0.0 | 1.6 | 1.07 | 1.04 | 1.04 | 96 | 1008.4 |
| 20260509234343 | 13 | 307 | 1.6 | 1.6 | 1.19 | 1.02 | 1.02 | 95 | 1008.3 |
| 20260509233842 | 13 | 3 | 1.6 | 1.6 | 0.48 | 0.89 | 0.89 | 91 | 1008.5 |
| 20260509233339 | 15 | 291 | 4.8 | 6.4 | 0.00 | 0.81 | 0.81 | 83 | 1008.1 |
| 20260509232834 | 15 | 309 | 3.2 | 4.8 | 0.00 | 0.81 | 0.81 | 79 | 1007.8 |
| 20260509232332 | 16 | 265 | 3.2 | 3.2 | 0.00 | 0.81 | 0.81 | 74 | 1007.8 |
| 20260509231828 | 18 | 30 | 3.2 | 3.2 | 0.00 | 0.81 | 0.81 | 67 | 1007.5 |
| 20260509231325 | 19 | 287 | 1.6 | 1.6 | 0.00 | 0.81 | 0.81 | 61 | 1006.5 |
| 20260509230823 | 19 | 323 | 0.0 | 1.6 | 0.00 | 0.81 | 0.81 | 61 | 1006.2 |
| 20260509230320 | 20 | 233 | 4.8 | 4.8 | 0.00 | 0.81 | 0.81 | 57 | 1006.2 |
| 20260509225814 | 20 | 313 | 0.0 | 1.6 | 0.00 | 0.81 | 0.81 | 59 | 1006.2 |
| 20260509225312 | 20 | 210 | 3.2 | 6.4 | 0.00 | 0.81 | 0.81 | 57 | 1006.1 |
| 20260509224808 | 20 | 258 | 1.6 | 1.6 | 0.00 | 0.81 | 0.81 | 57 | 1006.0 |
| 20260509224304 | 20 | 198 | 9.7 | 12.9 | 0.00 | 0.81 | 0.81 | 57 | 1005.9 |
| 20260509223801 | 20 | 214 | 4.8 | 6.4 | 0.00 | 0.81 | 0.81 | 57 | 1005.8 |
| 20260509223258 | 20 | 270 | 0.0 | 1.6 | 0.00 | 0.81 | 0.81 | 57 | 1005.9 |
| 20260509222754 | 20 | 240 | 3.2 | 4.8 | 0.00 | 0.81 | 0.81 | 53 | 1005.8 |
| 20260509222250 | 20 | 298 | 0.0 | 0.0 | 0.00 | 0.81 | 0.81 | 54 | 1006.0 |
| 20260509221746 | 20 | 178 | 4.8 | 6.4 | 0.00 | 0.81 | 0.81 | 53 | 1005.8 |
| 20260509221243 | 21 | 184 | 4.8 | 6.4 | 0.00 | 0.81 | 0.81 | 53 | 1005.7 |
| 20260509220738 | 21 | 232 | 3.2 | 4.8 | 0.00 | 0.81 | 0.81 | 55 | 1006.0 |
| 20260509220235 | 21 | 194 | 4.8 | 6.4 | 0.00 | 0.81 | 0.81 | 55 | 1005.9 |
| 20260509215730 | 21 | 231 | 6.4 | 6.4 | 0.00 | 0.81 | 0.81 | 54 | 1006.1 |
| 20260509215227 | 21 | 164 | 9.7 | 12.9 | 0.00 | 0.81 | 0.81 | 54 | 1005.9 |
| 20260509214725 | 21 | 173 | 9.7 | 11.3 | 0.00 | 0.81 | 0.81 | 55 | 1006.0 |
| 20260509214221 | 21 | 241 | 3.2 | 4.8 | 0.00 | 0.81 | 0.81 | 56 | 1005.8 |
| 20260509213718 | 21 | 316 | 6.4 | 9.7 | 0.00 | 0.81 | 0.81 | 53 | 1005.8 |
| 20260509213213 | 21 | 232 | 8.0 | 12.9 | 0.00 | 0.81 | 0.81 | 53 | 1005.9 |
| 20260509212712 | 21 | 214 | 4.8 | 4.8 | 0.00 | 0.81 | 0.81 | 54 | 1005.6 |
| 20260509212209 | 21 | 200 | 9.7 | 16.1 | 0.00 | 0.81 | 0.81 | 53 | 1005.9 |
| 20260509211705 | 21 | 208 | 8.0 | 9.7 | 0.00 | 0.81 | 0.81 | 52 | 1005.9 |
| 20260509211202 | 21 | 215 | 3.2 | 4.8 | 0.00 | 0.81 | 0.81 | 53 | 1006.1 |
| 20260509210658 | 21 | 209 | 4.8 | 6.4 | 0.00 | 0.81 | 0.81 | 53 | 1006.1 |
| 20260509210155 | 21 | 257 | 9.7 | 14.5 | 0.00 | 0.81 | 0.81 | 55 | 1006.0 |
| 20260509205650 | 21 | 194 | 4.8 | 4.8 | 0.00 | 0.81 | 0.81 | 60 | 1006.4 |
| 20260509205149 | 21 | 190 | 0.0 | 1.6 | 0.00 | 0.81 | 0.81 | 57 | 1006.1 |
| 20260509204647 | 20 | 201 | 4.8 | 4.8 | 0.00 | 0.81 | 0.81 | 55 | 1006.4 |
| 20260509204143 | 20 | 248 | 9.7 | 22.5 | 0.00 | 0.81 | 0.81 | 58 | 1006.5 |
| 20260509203639 | 20 | 273 | 3.2 | 4.8 | 0.00 | 0.81 | 0.81 | 58 | 1006.6 |
| 20260509203138 | 20 | 207 | 4.8 | 6.4 | 0.00 | 0.81 | 0.81 | 58 | 1006.5 |
| 20260509202637 | 20 | 225 | 4.8 | 4.8 | 0.00 | 0.81 | 0.81 | 62 | 1006.8 |
| 20260509202133 | 20 | 298 | 4.8 | 4.8 | 0.00 | 0.81 | 0.81 | 60 | 1006.6 |
| 20260509201628 | 20 | 267 | 1.6 | 3.2 | 0.00 | 0.81 | 0.81 | 59 | 1006.8 |
| 20260509201125 | 20 | 218 | 9.7 | 12.9 | 0.00 | 0.81 | 0.81 | 59 | 1007.1 |
| 20260509200621 | 20 | 211 | 8.0 | 11.3 | 0.00 | 0.81 | 0.81 | 60 | 1007.1 |
| 20260509200111 | 20 | 258 | 3.2 | 3.2 | 0.00 | 0.81 | 0.81 | 60 | 1007.4 |
| 20260509195607 | 20 | 136 | 8.0 | 11.3 | 0.00 | 0.81 | 0.81 | 62 | 1007.3 |
| 20260509195102 | 20 | 211 | 8.0 | 9.7 | 0.00 | 0.81 | 0.81 | 59 | 1007.5 |
| 20260509194601 | 20 | 221 | 3.2 | 4.8 | 0.00 | 0.81 | 0.81 | 62 | 1007.6 |
| 20260509194100 | 20 | 157 | 6.4 | 9.7 | 0.00 | 0.81 | 0.81 | 62 | 1007.4 |
| 20260509193555 | 20 | 143 | 3.2 | 3.2 | 0.00 | 0.81 | 0.81 | 60 | 1007.4 |
| 20260509193051 | 20 | 213 | 1.6 | 3.2 | 0.00 | 0.81 | 0.81 | 62 | 1007.5 |
| 20260509192548 | 20 | 340 | 8.0 | 12.9 | 0.00 | 0.81 | 0.81 | 61 | 1007.5 |
| 20260509192042 | 20 | 233 | 6.4 | 9.7 | 0.00 | 0.81 | 0.81 | 64 | 1007.5 |
| 20260509191537 | 20 | 247 | 1.6 | 1.6 | 0.00 | 0.81 | 0.81 | 65 | 1007.6 |
| 20260509191033 | 19 | 277 | 1.6 | 3.2 | 0.00 | 0.81 | 0.81 | 65 | 1007.5 |
| 20260509190530 | 19 | 123 | 3.2 | 9.7 | 0.00 | 0.81 | 0.81 | 67 | 1007.6 |
| 20260509190029 | 19 | 198 | 1.6 | 1.6 | 0.00 | 0.81 | 0.81 | 64 | 1007.6 |
| 20260509185526 | 18 | 206 | 3.2 | 4.8 | 0.00 | 0.81 | 0.81 | 68 | 1007.8 |
| 20260509185022 | 19 | 219 | 3.2 | 3.2 | 0.00 | 0.81 | 0.81 | 64 | 1007.7 |
| 20260509184520 | 18 | 294 | 0.0 | 1.6 | 0.00 | 0.81 | 0.81 | 66 | 1007.7 |
| 20260509184016 | 18 | 290 | 3.2 | 4.8 | 0.00 | 0.81 | 0.81 | 63 | 1007.8 |
| 20260509183511 | 18 | 255 | 1.6 | 4.8 | 0.00 | 0.81 | 0.81 | 65 | 1007.8 |
| 20260509183008 | 18 | 219 | 4.8 | 9.7 | 0.00 | 0.81 | 0.81 | 64 | 1007.8 |
| 20260509182504 | 18 | 324 | 3.2 | 3.2 | 0.00 | 0.81 | 0.81 | 64 | 1007.8 |
| 20260509182001 | 18 | 272 | 1.6 | 3.2 | 0.00 | 0.81 | 0.81 | 64 | 1007.9 |
| 20260509181459 | 18 | 239 | 6.4 | 11.3 | 0.00 | 0.81 | 0.81 | 65 | 1007.8 |
| 20260509180956 | 18 | 232 | 4.8 | 6.4 | 0.00 | 0.81 | 0.81 | 65 | 1007.9 |
| 20260509180451 | 18 | 172 | 6.4 | 11.3 | 0.00 | 0.81 | 0.81 | 64 | 1008.0 |
| 20260509175949 | 18 | 288 | 4.8 | 6.4 | 0.00 | 0.81 | 0.81 | 66 | 1008.1 |
| 20260509175444 | 18 | 214 | 6.4 | 9.7 | 0.00 | 0.81 | 0.81 | 66 | 1007.9 |
| 20260509174941 | 18 | 224 | 6.4 | 6.4 | 0.00 | 0.81 | 0.81 | 67 | 1008.1 |
| 20260509174437 | 18 | 201 | 4.8 | 6.4 | 0.00 | 0.81 | 0.81 | 68 | 1008.1 |
| 20260509173933 | 18 | 246 | 3.2 | 4.8 | 0.00 | 0.81 | 0.81 | 68 | 1008.1 |
| 20260509173432 | 18 | 251 | 4.8 | 4.8 | 0.00 | 0.81 | 0.81 | 66 | 1008.1 |
| 20260509172929 | 18 | 330 | 3.2 | 3.2 | 0.00 | 0.81 | 0.81 | 71 | 1008.2 |
| 20260509172426 | 18 | 238 | 3.2 | 4.8 | 0.00 | 0.81 | 0.81 | 69 | 1008.2 |
| 20260509171922 | 17 | 243 | 1.6 | 3.2 | 0.00 | 0.81 | 0.81 | 71 | 1008.2 |
| 20260509171418 | 18 | 132 | 1.6 | 3.2 | 0.00 | 0.81 | 0.81 | 72 | 1008.1 |
| 20260509170915 | 17 | 275 | 3.2 | 4.8 | 0.00 | 0.81 | 0.81 | 71 | 1008.3 |
| 20260509170410 | 17 | 229 | 1.6 | 1.6 | 0.00 | 0.81 | 0.81 | 69 | 1008.0 |
| 20260509165907 | 17 | 273 | 1.6 | 1.6 | 0.00 | 0.81 | 0.81 | 68 | 1008.1 |
| 20260509165400 | 17 | 233 | 6.4 | 9.7 | 0.00 | 0.81 | 0.81 | 70 | 1008.1 |
| 20260509164857 | 17 | 265 | 3.2 | 4.8 | 0.00 | 0.81 | 0.81 | 71 | 1008.0 |
| 20260509164352 | 17 | 181 | 0.0 | 0.0 | 0.00 | 0.81 | 0.81 | 73 | 1008.1 |
| 20260509163849 | 17 | 153 | 1.6 | 4.8 | 0.00 | 0.81 | 0.81 | 72 | 1008.1 |
| 20260509163346 | 17 | 299 | 1.6 | 1.6 | 0.00 | 0.81 | 0.81 | 72 | 1008.5 |
| 20260509162845 | 17 | 243 | 4.8 | 4.8 | 0.00 | 0.81 | 0.81 | 71 | 1008.4 |
| 20260509162338 | 16 | 309 | 3.2 | 4.8 | 0.00 | 0.81 | 0.81 | 72 | 1008.6 |
| 20260509161835 | 16 | 173 | 0.0 | 0.0 | 0.00 | 0.81 | 0.81 | 77 | 1008.7 |
| 20260509161331 | 17 | 306 | 3.2 | 4.8 | 0.00 | 0.81 | 0.81 | 74 | 1008.5 |
| 20260509160827 | 17 | 272 | 1.6 | 3.2 | 0.00 | 0.81 | 0.81 | 75 | 1008.5 |
| 20260509160323 | 16 | 219 | 3.2 | 3.2 | 0.00 | 0.81 | 0.81 | 73 | 1008.7 |
| 20260509155818 | 16 | 257 | 3.2 | 4.8 | 0.00 | 0.81 | 0.81 | 74 | 1008.5 |
| 20260509155315 | 16 | 299 | 3.2 | 4.8 | 0.00 | 0.81 | 0.81 | 76 | 1008.5 |
| 20260509154811 | 16 | 213 | 4.8 | 4.8 | 0.00 | 0.81 | 0.81 | 76 | 1008.7 |
| 20260509154308 | 16 | 195 | 1.6 | 1.6 | 0.00 | 0.81 | 0.81 | 76 | 1008.5 |